GW3407 Weather Reports


time (UTC)temp
F
wind
direction
speed
knots
gust
knots
rain 1hr
in
rain 24hr
in
rain mn
in
humidity
%
barometer
mb
20260504110653 49 26 0.0 2.6 0.00 0.00 0.00 76 1011.4
20260504110149 48 237 0.0 1.7 0.00 0.00 0.00 76 1011.5
20260504100615 44 146 2.6 2.6 0.00 0.00 0.00 92 1011.9
20260504100114 44 90 0.0 2.6 0.00 0.00 0.00 92 1012.0
20260504081506 46 199 0.0 2.6 0.00 0.00 0.00 93 1012.5
20260504081002 46 172 1.7 1.7 0.00 0.00 0.00 92 1012.7
20260504080458 45 203 0.9 0.9 0.00 0.00 0.00 92 1012.5
20260504050311 52 197 1.7 2.6 0.00 0.00 0.00 73 1014.0
20260504045808 53 105 1.7 2.6 0.00 0.00 0.00 69 1014.3
20260504045304 53 147 1.7 2.6 0.00 0.00 0.00 68 1014.1
20260504044800 54 265 0.0 3.5 0.00 0.00 0.00 67 1014.4
20260504044258 53 256 4.3 7.0 0.00 0.00 0.00 66 1014.4
20260504043755 52 167 2.6 4.3 0.00 0.00 0.00 69 1014.4
20260504043251 50 209 2.6 2.6 0.00 0.00 0.00 83 1014.4
20260504042749 49 68 0.0 1.7 0.00 0.00 0.00 83 1014.1
20260504042245 49 270 0.0 1.7 0.00 0.00 0.00 83 1014.1
20260504041742 49 234 0.0 2.6 0.00 0.00 0.00 81 1013.8
20260504041238 49 160 0.0 2.6 0.00 0.00 0.00 81 1014.2
20260504040734 49 162 0.0 1.7 0.00 0.00 0.00 81 1014.2
20260504040232 49 117 0.0 2.6 0.00 0.00 0.00 81 1014.1
20260504035727 49 160 0.0 1.7 0.00 0.00 0.00 82 1014.2
20260504035225 49 101 1.7 2.6 0.00 0.00 0.00 80 1014.0
20260504034722 49 162 0.9 3.5 0.00 0.00 0.00 80 1014.2
20260504034219 49 152 1.7 1.7 0.00 0.00 0.00 81 1014.3
20260504033717 49 250 0.0 2.6 0.00 0.00 0.00 80 1014.0
20260504033214 49 279 0.0 2.6 0.00 0.00 0.00 79 1014.1
20260504032711 49 243 0.0 1.7 0.00 0.00 0.00 78 1014.2
20260504032208 49 166 0.0 3.5 0.00 0.00 0.00 79 1014.3
20260504031705 50 209 1.7 2.6 0.00 0.00 0.00 80 1014.2
20260504031202 49 185 0.0 1.7 0.00 0.00 0.00 80 1014.4
20260504030658 49 117 0.9 1.7 0.00 0.00 0.00 79 1014.1
20260504030155 50 163 2.6 2.6 0.00 0.00 0.00 79 1014.2
20260504025652 50 69 0.0 1.7 0.00 0.00 0.00 77 1014.2
20260504025148 50 15 0.0 0.9 0.00 0.00 0.00 78 1014.1
20260504024646 50 162 0.9 2.6 0.00 0.00 0.00 78 1014.2
20260504024142 50 294 0.0 0.9 0.00 0.00 0.00 77 1014.3
20260504023639 50 0 0.9 1.7 0.00 0.00 0.00 72 1014.2
20260504023135 50 188 0.0 1.7 0.00 0.00 0.00 77 1014.2
20260504022632 50 74 0.0 1.7 0.00 0.00 0.00 75 1014.4
20260504022127 50 200 2.6 2.6 0.00 0.00 0.00 74 1014.3
20260504021626 50 225 0.0 1.7 0.00 0.00 0.00 75 1014.3
20260504021122 50 165 0.0 1.7 0.00 0.00 0.00 73 1014.1
20260504020619 51 203 0.9 1.7 0.00 0.00 0.00 74 1013.9
20260504020115 51 270 0.0 1.7 0.00 0.00 0.00 72 1013.9
20260504015612 51 261 0.0 0.9 0.00 0.00 0.00 72 1013.9
20260504015108 51 289 0.0 1.7 0.00 0.00 0.00 72 1013.6
20260504014604 52 276 0.9 2.6 0.00 0.00 0.00 70 1013.7
20260504014102 52 270 0.9 1.7 0.00 0.00 0.00 67 1013.8
20260504013559 52 237 0.0 1.7 0.00 0.00 0.00 66 1013.9
20260504013056 52 220 1.7 2.6 0.00 0.00 0.00 67 1013.6
20260504012553 52 294 0.0 1.7 0.00 0.00 0.00 67 1013.6
20260504012051 53 254 0.0 2.6 0.00 0.00 0.00 67 1013.7
20260504011547 53 270 2.6 2.6 0.00 0.00 0.00 66 1013.6
20260504011043 53 270 1.7 2.6 0.00 0.00 0.00 64 1014.0
20260504010539 53 120 0.9 2.6 0.00 0.00 0.00 68 1014.1
20260504010036 53 165 0.0 1.7 0.00 0.00 0.00 64 1014.2
20260504005532 54 180 0.0 1.7 0.00 0.00 0.00 64 1014.4
20260504005030 53 206 0.9 1.7 0.00 0.00 0.00 62 1014.3
20260504004528 54 180 0.0 1.7 0.00 0.00 0.00 64 1014.2
20260504004024 54 270 0.0 1.7 0.00 0.00 0.00 61 1014.0
20260504003520 55 168 0.0 1.7 0.00 0.00 0.00 59 1014.0
20260504003018 55 164 0.0 1.7 0.00 0.00 0.00 58 1014.0
20260504002514 55 180 0.0 2.6 0.00 0.00 0.00 58 1014.0
20260504002012 56 168 0.0 1.7 0.00 0.00 0.00 55 1014.0
20260504001509 56 180 0.9 1.7 0.00 0.00 0.00 52 1013.8
20260504001005 56 225 1.7 1.7 0.00 0.00 0.00 53 1014.0
20260504000503 57 258 0.0 2.6 0.00 0.00 0.00 55 1014.1
20260504000000 57 300 1.7 1.7 0.00 0.00 0.00 50 1014.0
20260503235458 58 173 0.0 2.6 0.00 0.00 0.00 46 1013.8
20260503234955 58 203 0.0 2.6 0.00 0.00 0.00 49 1014.0
20260503234452 59 278 0.0 1.7 0.00 0.00 0.00 45 1013.9
20260503233950 59 251 0.0 4.3 0.00 0.00 0.00 43 1014.1
20260503233446 59 240 0.0 0.9 0.00 0.00 0.00 42 1013.9
20260503232943 60 270 1.7 3.5 0.00 0.00 0.00 41 1013.8
20260503232440 60 246 0.0 3.5 0.00 0.00 0.00 42 1013.9
20260503231938 60 172 0.0 2.6 0.00 0.00 0.00 42 1014.2
20260503231435 60 245 2.6 8.7 0.00 0.00 0.00 40 1014.2
20260503230931 61 230 2.6 5.2 0.00 0.00 0.00 40 1014.1
20260503230428 61 270 0.0 4.3 0.00 0.00 0.00 41 1014.2
20260503225926 61 247 4.3 6.1 0.00 0.00 0.00 39 1014.5
20260503225422 61 248 2.6 3.5 0.00 0.00 0.00 40 1014.5
20260503224918 61 345 0.0 2.6 0.00 0.00 0.00 43 1014.5
20260503224415 61 212 1.7 3.5 0.00 0.00 0.00 40 1014.4
20260503223913 61 253 2.6 5.2 0.00 0.00 0.00 39 1014.6
20260503223411 61 257 3.5 7.8 0.00 0.00 0.00 39 1014.7
20260503222910 61 246 1.7 4.3 0.00 0.00 0.00 41 1014.9
20260503222409 61 242 4.3 7.8 0.00 0.00 0.00 38 1014.8
20260503221907 62 246 2.6 4.3 0.00 0.00 0.00 39 1014.8
20260503221406 62 261 1.7 5.2 0.00 0.00 0.00 37 1014.9
20260503220901 62 252 6.1 6.1 0.00 0.00 0.00 38 1014.9
20260503220358 61 285 0.0 5.2 0.00 0.00 0.00 40 1014.7
20260503215855 61 291 0.0 7.8 0.00 0.00 0.00 40 1014.8
20260503215352 61 133 0.0 2.6 0.00 0.00 0.00 41 1014.8
20260503214849 61 241 5.2 7.0 0.00 0.00 0.00 37 1014.9
20260503214347 62 262 3.5 13.9 0.00 0.00 0.00 36 1014.7
20260503213844 63 180 0.0 8.7 0.00 0.00 0.00 40 1014.9
20260503213342 65 206 2.6 4.3 0.00 0.00 0.00 36 1014.7
20260503212839 64 245 5.2 13.9 0.00 0.00 0.00 36 1014.7
20260503212336 65 139 1.7 7.8 0.00 0.00 0.00 43 1014.9
20260503211833 64 307 0.0 8.7 0.00 0.00 0.00 38 1014.9
20260503211330 63 243 8.7 13.0 0.00 0.00 0.00 38 1014.9
20260503210825 64 83 0.0 7.8 0.00 0.00 0.00 40 1015.0
20260503210323 63 280 3.5 14.8 0.00 0.00 0.00 39 1014.9
20260503205818 63 259 5.2 13.9 0.00 0.00 0.00 35 1015.0
20260503205315 64 80 0.0 3.5 0.00 0.00 0.00 38 1014.8
20260503204811 64 213 1.7 9.6 0.00 0.00 0.00 35 1014.7
20260503204309 62 270 2.6 13.0 0.00 0.00 0.00 36 1014.9
20260503203806 64 227 5.2 6.1 0.00 0.00 0.00 34 1014.9
20260503203303 65 196 0.0 4.3 0.00 0.00 0.00 39 1015.0
20260503202800 65 47 2.6 3.5 0.00 0.00 0.00 36 1015.1
20260503202258 64 304 1.7 7.0 0.00 0.00 0.00 42 1015.4
20260503201755 62 315 1.7 12.2 0.00 0.00 0.00 42 1015.5
20260503201253 62 254 5.2 13.9 0.00 0.00 0.00 39 1015.5
20260503200750 62 311 0.0 9.6 0.00 0.00 0.00 38 1015.4
20260503200246 64 281 5.2 5.2 0.00 0.00 0.00 37 1015.4
20260503195743 64 69 0.0 3.5 0.00 0.00 0.00 39 1015.8
20260503195239 64 109 0.0 5.2 0.00 0.00 0.00 36 1015.9
20260503194738 63 345 0.9 6.1 0.00 0.00 0.00 40 1016.2
20260503194233 62 266 4.3 6.1 0.00 0.00 0.00 37 1016.2
20260503193729 63 341 1.7 3.5 0.00 0.00 0.00 38 1016.1
20260503193225 63 222 7.8 7.8 0.00 0.00 0.00 40 1016.5
20260503192721 64 352 0.0 2.6 0.00 0.00 0.00 44 1016.4
20260503192216 62 203 0.9 8.7 0.00 0.00 0.00 38 1016.5
20260503191714 62 230 4.3 12.2 0.00 0.00 0.00 39 1016.7
20260503191211 64 173 0.0 4.3 0.00 0.00 0.00 48 1016.5
20260503190707 61 236 3.5 7.8 0.00 0.00 0.00 38 1016.6
20260503190204 62 250 2.6 5.2 0.00 0.00 0.00 41 1016.8
20260503185702 62 226 4.3 8.7 0.00 0.00 0.00 37 1017.2
20260503185156 61 270 0.0 11.3 0.00 0.00 0.00 39 1016.9
20260503184651 61 278 0.9 13.0 0.00 0.00 0.00 40 1017.1
20260503184148 62 270 1.7 3.5 0.00 0.00 0.00 45 1017.3
20260503183644 61 106 0.9 5.2 0.00 0.00 0.00 41 1017.3
20260503183142 62 251 7.8 8.7 0.00 0.00 0.00 42 1017.3
20260503182640 62 57 1.7 4.3 0.00 0.00 0.00 41 1017.3
20260503182139 62 265 3.5 5.2 0.00 0.00 0.00 40 1017.4
20260503181635 62 281 3.5 5.2 0.00 0.00 0.00 44 1017.3
20260503181132 60 258 6.1 9.6 0.00 0.00 0.00 42 1017.7
20260503180629 61 236 7.8 11.3 0.00 0.00 0.00 39 1017.7
20260503180127 60 216 2.6 7.0 0.00 0.00 0.00 40 1017.9
20260503175623 60 294 1.7 6.1 0.00 0.00 0.00 45 1017.9
20260503175120 61 0 1.7 2.6 0.00 0.00 0.00 41 1017.9
20260503174617 58 241 2.6 4.3 0.00 0.00 0.00 48 1017.9
20260503174114 61 276 1.7 5.2 0.00 0.00 0.00 40 1017.8
20260503173609 59 235 2.6 4.3 0.00 0.00 0.00 43 1017.9
20260503173106 58 234 4.3 5.2 0.00 0.00 0.00 44 1018.0
20260503172603 60 258 2.6 4.3 0.00 0.00 0.00 39 1018.2
20260503172100 61 294 2.6 5.2 0.00 0.00 0.00 45 1018.2
20260503171556 62 139 2.6 2.6 0.00 0.00 0.00 47 1018.3
20260503171054 60 304 2.6 2.6 0.00 0.00 0.00 46 1018.5
20260503170550 58 258 0.0 5.2 0.00 0.00 0.00 43 1018.5
20260503150943 54 233 1.7 4.3 0.00 0.00 0.00 48 1019.7
20260503150439 54 294 0.9 6.1 0.00 0.00 0.00 50 1019.8
20260503131332 46 233 2.6 9.6 0.00 0.00 0.00 69 1019.7
20260503130830 46 229 6.1 7.8 0.00 0.00 0.00 70 1019.6
20260503130327 45 220 2.6 5.2 0.00 0.00 0.00 73 1019.9